Charleston, WV

5:25 AM EDT on May 25, 2017 (GMT -0400)
Yeager Airport

Weather History for KCRW - October, 2012

Change the Weather History Date:

Wednesday, October 3, 2012

  Actual Average Record
Temperature  
Mean Temperature 68 °F 61 °F  
Max Temperature 74 °F 72 °F 94 °F (1927)
Min Temperature 62 °F 50 °F 28 °F (1974)
Degree Days  
Heating Degree Days 0 6  
Month to date heating degree days 6 16  
Since 1 July heating degree days 71 74  
Cooling Degree Days 3 1  
Month to date cooling degree days 11 5  
Year to date cooling degree days 1337 1078  
Growing Degree Days 18 (Base 50)    
Moisture  
Dew Point 60 °F    
Average Humidity 75    
Maximum Humidity 93    
Minimum Humidity 57    
Precipitation  
Precipitation T in 0.09 in 1.56 in (1961)
Month to date precipitation 0.37 0.26  
Year to date precipitation 31.31 34.62  
Snow  
Snow 0.00 in - - ()
Month to date snowfall 0.0  
Since 1 September snowfall 0.0  
Snow Depth 0.00 in    
Sea Level Pressure  
Sea Level Pressure 30.07 in    
Wind  
Wind Speed 2 mph (WSW)    
Max Wind Speed 13 mph    
Max Gust Speed 15 mph    
Visibility 10 miles    
Events Rain    
T = Trace of Precipitation, MM = Missing Value Source: NWS Daily Summary

Daily Weather History Graph

Daily Weather History Graph

Search for Another Location

Airport or City:

Trip Planner

Search our weather history database for the weather conditions in past years. The results will help you decide how hot, cold, wet, or windy it might be!

Date:

Astronomy

Oct. 03, 2012 Rise Set
Actual Time 7:24 AM EDT 7:05 PM EDT
Civil Twilight 6:57 AM EDT 7:31 PM EDT
Nautical Twilight 6:27 AM EDT 8:02 PM EDT
Astronomical Twilight 5:56 AM EDT 8:33 PM EDT
Moon 9:00 PM EDT (10/3) 10:43 AM EDT (10/3)
Length of Visible Light 12h 33m
Length of Day
11h 41m
Waning Gibbous, 89% of the Moon is Illuminated
Oct 3
Waning Gibbous
Oct 8
Last Quarter
Oct 15
New
Oct 21
First Quarter
Oct 29
Full

Hourly Weather History & Observations

Time (EDT) Temp. Dew Point Humidity Pressure Visibility Wind Dir Wind Speed Gust Speed Precip Events Conditions
12:54 AM 70.0 °F 64.0 °F 81% 29.91 in 10.0 mi West 4.6 mph - 0.00 in Rain Light Rain
1:54 AM 69.1 °F 63.0 °F 81% 29.93 in 10.0 mi Calm Calm - 0.00 in   Overcast
2:54 AM 69.1 °F 63.0 °F 81% 29.95 in 10.0 mi Calm Calm - N/A   Mostly Cloudy
3:54 AM 68.0 °F 63.0 °F 84% 29.98 in 10.0 mi WSW 4.6 mph - N/A   Overcast
4:54 AM 66.9 °F 60.1 °F 79% 30.00 in 10.0 mi West 5.8 mph - N/A   Overcast
5:54 AM 66.0 °F 60.1 °F 81% 30.01 in 10.0 mi West 3.5 mph - N/A   Overcast
6:54 AM 64.9 °F 59.0 °F 81% 30.04 in 10.0 mi Calm Calm - N/A   Overcast
7:32 AM 64.4 °F 60.8 °F 88% 30.08 in 10.0 mi Calm Calm - N/A   Overcast
7:54 AM 64.9 °F 60.1 °F 84% 30.07 in 10.0 mi Calm Calm - N/A   Overcast
8:54 AM 64.9 °F 60.1 °F 84% 30.09 in 10.0 mi Variable 3.5 mph - 0.00 in Rain Light Rain
9:54 AM 66.0 °F 57.9 °F 75% 30.10 in 10.0 mi WSW 4.6 mph - 0.00 in   Overcast
10:54 AM 66.9 °F 57.0 °F 70% 30.12 in 10.0 mi WSW 5.8 mph - N/A   Mostly Cloudy
11:54 AM 68.0 °F 55.9 °F 65% 30.12 in 10.0 mi Variable 3.5 mph - N/A   Mostly Cloudy
12:21 PM 69.8 °F 57.2 °F 64% 30.14 in 10.0 mi Variable 4.6 mph - N/A   Mostly Cloudy
12:54 PM 70.0 °F 55.9 °F 61% 30.12 in 10.0 mi SW 4.6 mph - N/A   Mostly Cloudy
1:54 PM 71.1 °F 55.9 °F 59% 30.10 in 10.0 mi WSW 3.5 mph - N/A   Mostly Cloudy
2:54 PM 72.0 °F 57.9 °F 61% 30.09 in 10.0 mi SSW 8.1 mph - N/A   Mostly Cloudy
3:54 PM 73.0 °F 57.9 °F 59% 30.07 in 10.0 mi SW 5.8 mph - N/A   Scattered Clouds
4:54 PM 72.0 °F 57.0 °F 59% 30.08 in 10.0 mi WSW 5.8 mph - N/A   Mostly Cloudy
5:54 PM 72.0 °F 57.9 °F 61% 30.08 in 10.0 mi Calm Calm - N/A   Mostly Cloudy
6:54 PM 70.0 °F 60.1 °F 71% 30.08 in 10.0 mi Calm Calm - N/A   Mostly Cloudy
7:54 PM 66.9 °F 61.0 °F 81% 30.09 in 10.0 mi Calm Calm - N/A   Scattered Clouds
8:54 PM 64.9 °F 61.0 °F 87% 30.11 in 10.0 mi Calm Calm - N/A   Partly Cloudy
9:54 PM 63.0 °F 61.0 °F 93% 30.13 in 10.0 mi Calm Calm - N/A   Partly Cloudy
10:54 PM 63.0 °F 60.1 °F 90% 30.14 in 10.0 mi Calm Calm - N/A   Clear
11:54 PM 62.1 °F 60.1 °F 93% 30.16 in 7.0 mi Calm Calm - N/A   Scattered Clouds